Location: Nelson
(41.2830°S, 173.2830°E)
Time: 12:57:44
(UTC+13:00)

Radarsat Rocket - Pass Details

Date: 30 September 2021
Orbit: 933 x 1492 km, 100.6° (Epoch: 27 October)

Event Time Altitude Azimuth Distance (km) Brightness Sun altitude
Rises 04:29:30 0° 84° (E) 4,629 8.3 -28.1°
Reaches altitude 10° 04:34:14 10° 107° (ESE) 3,634 7.9 -27.3°
Maximum altitude 04:37:57 14° 133° (SE) 3,315 7.6 -26.7°
Drops below altitude 10° 04:41:36 10° 159° (SSE) 3,550 7.5 -26.1°
Sets 04:46:05 0° 182° (S) 4,441 7.8 -25.4°
